Temperature
9 8 8 8 9 9 9 9 9 10 11 11 11 10 11 12 12 13 14 15 16 17 17 18 18 18 18 18 18 18 18 18 18 17 16 16 16 15 15 15 14 14 14 13
8 8 9 9 9 10 9 9 9 10 11 11 10 10 10 11 11 13 14 14 15 16 17 17 17 17 18 18 18 18 18 18 18 17 17 17 17 16 16 15 15 14 14 13
8 9 9 10 9 9 9 9 9 10 9 9 9 9 9 10 12 13 14 14 15 15 16 16 17 17 17 17 17 18 18 18 18 18 17 17 16 16 15 15 15 14 14 13
8 9 10 9 9 9 9 10 10 10 8 7 8 7 8 9 10 11 12 13 14 15 15 16 16 16 17 17 17 17 17 17 17 17 17 17 16 16 16 16 15 15 14 14
8 9 9 9 10 10 9 10 9 9 7 6 7 7 8 8 10 12 11 13 15 15 15 15 16 16 16 16 17 17 17 17 17 17 17 17 17 17 16 16 15 15 14 14
8 9 9 9 10 10 9 8 8 6 5 5 6 6 7 8 11 12 12 13 14 15 15 15 15 15 16 16 16 16 16 16 16 16 16 16 16 16 16 16 15 15 14 14
7 8 9 9 9 9 8 6 6 6 6 5 7 6 7 9 10 11 11 13 14 14 15 15 15 15 15 15 15 16 16 16 16 16 16 16 16 16 16 16 15 15 14 14
6 7 8 9 8 7 7 6 5 6 5 6 7 6 8 10 11 12 13 13 13 14 14 14 14 14 14 14 14 15 15 15 15 15 15 15 15 15 15 15 15 15 14 14
7 7 8 9 9 8 7 6 7 6 5 5 6 7 8 11 11 11 11 12 13 13 13 13 13 13 13 13 13 14 14 14 14 14 14 14 15 15 15 15 15 14 14 13
8 7 8 8 9 9 8 7 5 4 5 5 6 6 8 11 10 10 10 11 12 12 12 12 12 12 12 12 12 12 13 13 13 14 14 14 14 14 14 14 14 13 13 12
8 6 7 7 7 7 7 7 6 4 4 4 5 7 9 10 10 9 9 11 11 11 11 10 10 10 11 11 11 12 12 12 12 13 13 13 13 13 13 13 13 12 11 11
8 6 6 7 7 7 7 6 5 4 4 4 4 7 9 9 9 9 10 11 11 10 10 9 9 9 9 10 10 10 11 11 11 12 12 12 12 12 12 12 11 11 10 9
8 6 5 6 6 7 7 6 6 6 5 4 4 6 9 8 9 10 10 10 10 9 9 8 8 8 8 8 9 9 10 10 10 11 11 11 11 11 11 11 10 9 9 8
8 6 5 5 6 6 6 6 6 6 4 4 4 6 8 8 9 9 10 10 9 8 8 7 7 7 7 7 8 8 8 9 9 10 10 10 10 10 9 9 8 8 7 6
8 6 6 6 7 7 7 7 7 6 5 5 5 6 8 8 8 9 9 9 8 7 6 6 6 6 6 6 6 7 7 7 8 8 8 8 8 8 7 7 6 6 5 5
7 6 6 6 7 7 6 7 7 7 7 7 7 7 9 9 9 9 9 8 7 6 5 5 5 5 5 5 5 5 6 6 6 6 7 7 6 6 5 5 4 4 3 3
6 6 6 5 6 7 6 7 7 7 7 7 7 8 9 9 9 8 8 7 6 5 5 4 4 4 5 5 5 5 5 4 5 5 4 4 4 4 3 3 3 2 2 2
5 6 5 6 6 6 7 9 8 8 8 8 8 9 9 9 9 8 7 6 6 5 4 4 4 4 4 4 4 4 3 3 3 3 2 2 2 2 2 1 1 2 2 2
6 6 6 6 6 6 7 9 9 8 8 9 9 9 9 9 7 7 6 6 5 4 4 4 3 3 3 3 3 3 2 2 2 2 1 1 1 1 1 1 1 1 1 1
6 6 6 6 6 5 8 9 9 9 8 9 9 8 8 7 7 6 6 5 5 4 3 3 3 3 3 2 2 2 2 1 1 1 1 0 1 1 1 1 1 1 1 0
6 6 6 6 6 6 8 9 9 8 9 9 9 9 8 7 7 6 5 5 4 3 3 2 2 2 2 1 1 2 1 1 1 0 0 0 0 0 0 0 0 0 0 -0
6 6 6 6 6 6 8 8 8 9 10 9 9 9 8 7 6 5 5 4 3 3 2 2 2 1 1 1 1 1 1 0 0 0 0 0 0 0 0 0 -0 -0 -0 -0
6 6 6 6 7 8 9 9 10 10 9 9 9 8 7 6 5 5 4 3 3 2 2 1 1 1 0 0 0 1 0 0 0 0 0 0 0 -0 -0 -0 -0 -0 -1 -1
6 6 6 6 6 7 9 9 9 9 9 9 8 7 6 6 5 4 3 3 2 1 1 1 0 0 0 0 0 1 1 0 0 0 0 -0 -0 -0 -0 -1 -1 -1 -1 -1
6 7 6 6 7 8 9 9 9 9 8 8 7 6 6 5 5 4 3 2 2 1 1 1 1 1 1 0 0 0 1 1 0 0 0 0 -0 -0 -1 -1 -1 -2 -2 -2
5 6 6 6 7 7 8 9 9 8 8 7 6 6 5 5 5 4 3 2 2 1 1 1 1 1 1 1 1 1 1 1 1 1 0 -0 -0 -1 -1 -1 -2 -2 -3 -3
Wind_Speed
5 5 8 11 10 6 5 3 4 5 4 2 6 10 14 11 10 13 14 14 13 14 13 10 10 11 10 9 11 13 15 15 14 12 12 11 11 10 9 8 12 15 16 17
5 8 8 8 7 4 2 2 4 4 4 4 5 10 12 13 12 15 17 16 15 14 12 11 10 9 9 10 10 12 14 15 16 15 14 11 10 7 7 7 9 14 15 16
7 5 8 8 7 7 5 5 4 3 6 5 6 9 9 9 8 12 14 15 15 15 13 11 10 10 8 9 10 11 12 14 15 14 8 6 5 4 3 5 7 8 13 15
4 3 8 9 8 7 4 2 3 1 4 5 4 6 9 7 9 8 9 9 11 10 10 9 9 9 9 10 9 10 11 12 13 13 13 15 12 10 9 8 6 7 9 12
6 4 7 8 6 6 4 5 5 4 4 4 2 3 10 7 6 6 5 4 4 4 5 6 7 8 8 7 7 7 8 10 11 13 16 18 13 9 6 7 9 8 7 8
3 2 4 4 4 6 7 6 6 5 4 4 5 6 8 5 5 4 5 3 2 2 2 3 4 5 6 5 5 5 6 9 10 13 15 17 15 13 13 12 11 9 7 7
4 2 2 4 6 4 6 6 3 2 1 6 4 5 10 10 8 5 3 2 3 3 3 4 5 5 6 7 6 6 6 8 10 12 15 17 17 19 20 17 15 13 9 7
6 5 5 4 5 6 6 7 6 5 4 5 2 7 9 9 6 4 1 1 4 5 5 5 5 5 6 6 6 6 7 9 9 11 13 14 15 14 13 14 14 14 11 9
6 3 3 4 4 7 6 5 5 3 1 4 6 7 9 4 2 3 4 6 7 7 7 7 7 7 7 7 7 8 9 10 10 11 11 12 14 13 13 13 12 10 10 11
5 5 4 4 4 2 5 6 5 4 3 4 6 6 5 4 3 5 7 8 9 9 9 9 8 8 8 8 8 8 9 11 10 9 10 11 13 13 14 14 14 13 14 14
4 6 5 4 6 7 5 4 4 4 4 4 4 7 5 2 1 4 7 8 9 9 9 8 8 9 9 9 7 7 7 7 7 8 9 12 12 13 14 13 14 14 14 15
4 5 4 3 3 7 6 6 6 4 4 4 3 8 6 3 3 5 9 11 10 9 8 7 8 8 9 9 8 6 5 5 6 8 11 12 13 14 14 14 14 15 15 14
5 5 4 1 1 4 5 6 6 5 3 4 4 9 4 5 9 10 12 13 12 10 9 8 7 7 8 8 7 5 2 1 4 9 13 13 14 14 14 15 15 15 15 14
5 4 5 7 5 6 5 7 9 8 5 5 9 13 15 14 15 16 15 13 11 8 7 7 8 7 6 6 5 4 3 4 7 10 12 13 13 13 14 14 15 15 15 15
5 3 3 4 4 5 7 9 12 14 12 10 10 12 19 16 15 14 12 11 10 8 6 7 7 6 5 4 4 4 5 7 8 11 12 13 13 13 14 14 14 14 14 15
4 3 0 3 5 7 8 12 15 16 15 19 19 22 19 13 11 10 10 10 8 7 5 6 6 5 4 4 4 6 7 8 10 11 12 13 14 15 14 14 15 15 14 14
4 4 1 3 4 3 7 11 14 10 10 11 17 18 14 13 12 9 8 8 7 4 4 4 4 4 3 4 5 7 8 10 12 12 13 13 15 15 14 15 15 14 13 12
6 4 2 2 3 6 7 4 7 10 12 13 12 11 10 11 9 6 3 4 4 2 2 2 3 4 5 7 8 10 11 12 13 13 14 14 15 15 14 14 14 13 11 10
5 5 2 1 3 7 8 4 5 5 7 7 9 9 8 6 5 3 2 2 2 2 2 3 4 6 8 9 10 12 13 13 14 14 13 13 14 15 14 13 12 10 10 9
4 4 3 3 3 5 6 3 1 2 4 3 4 6 6 4 4 3 2 3 4 5 5 5 6 8 9 9 10 12 13 13 13 13 13 13 13 13 12 11 10 8 8 8
5 4 6 5 5 7 8 4 2 1 4 4 5 6 5 4 4 1 4 4 5 6 6 7 8 8 8 8 11 12 12 12 12 13 13 12 12 11 11 10 8 8 7 7
8 6 6 5 6 8 5 3 4 6 5 5 6 6 5 4 2 3 4 5 6 7 7 8 8 8 8 9 11 13 12 12 12 13 13 12 10 9 9 9 8 7 7 7
7 8 6 8 9 6 3 5 5 4 5 6 5 4 4 4 4 4 5 6 6 7 7 8 9 9 8 8 10 12 11 11 12 12 12 10 10 8 7 8 7 6 5 5
4 5 4 5 8 8 8 6 5 4 5 5 4 4 4 5 5 6 6 7 7 7 7 8 9 9 9 8 10 10 10 11 12 12 10 9 9 8 6 5 5 5 4 4
5 4 4 6 8 7 6 4 3 2 2 2 3 2 4 6 6 7 7 8 8 7 7 8 8 9 10 9 10 9 9 10 11 10 9 8 7 7 6 5 4 4 3 4
4 5 5 6 6 4 5 3 2 3 3 3 2 1 2 5 7 8 8 7 8 8 8 9 9 10 10 10 9 8 8 10 11 10 8 6 6 6 5 5 5 7 5 7
Wind_Direction
146 156 190 190 185 170 152 164 240 257 312 312 244 251 261 265 263 259 259 258 257 259 259 255 247 245 240 230 217 207 204 201 193 189 189 189 194 193 190 189 182 178 173 169
150 204 197 179 186 203 214 249 262 286 344 342 292 277 268 257 249 247 251 253 254 257 266 260 251 247 240 234 225 216 208 203 197 197 195 193 189 187 185 181 180 178 172 169
171 187 174 174 184 198 223 217 232 282 344 1 342 299 274 270 258 253 249 249 249 246 251 255 252 249 244 237 228 223 213 208 203 196 180 151 119 97 139 177 180 179 171 167
165 178 164 173 185 173 209 210 180 79 34 325 19 305 289 288 302 286 274 260 253 251 248 248 248 250 246 241 233 226 218 210 203 192 179 174 180 183 188 180 168 160 163 162
173 160 156 172 175 152 146 97 91 82 76 341 285 237 283 303 289 300 305 288 268 262 254 257 257 253 255 250 241 234 225 213 203 195 189 189 189 178 153 147 149 151 152 154
121 133 140 148 121 131 125 73 59 56 65 289 221 191 277 264 252 312 341 4 15 1 336 305 297 289 282 277 261 245 229 221 208 199 193 194 184 161 154 159 162 157 151 149
124 113 125 120 111 107 109 97 62 352 279 255 206 197 254 261 263 257 271 24 31 26 12 345 332 318 304 295 280 259 235 227 215 204 198 195 184 173 173 170 169 163 162 162
148 179 190 155 150 151 142 137 160 197 231 281 233 228 255 269 267 250 203 76 28 16 360 337 317 304 294 287 279 265 249 237 220 209 203 193 180 178 176 171 169 170 168 157
149 155 146 147 123 129 136 163 155 130 313 282 275 282 296 285 356 32 27 24 8 349 337 324 316 309 297 287 274 257 250 243 227 211 196 183 177 173 168 162 155 152 147 146
125 120 135 128 106 96 141 142 120 142 186 265 290 272 249 278 3 15 8 357 342 336 330 325 320 312 303 290 282 272 252 238 225 204 187 178 171 165 159 155 154 151 149 148
99 117 131 139 181 177 151 156 145 144 167 184 281 273 225 214 347 350 345 341 333 327 323 321 317 315 313 308 296 282 264 240 212 190 174 160 156 151 149 151 150 149 146 148
125 115 142 201 220 176 165 173 151 163 219 198 223 272 267 259 277 317 325 321 316 314 313 316 317 319 319 317 312 303 279 227 193 168 152 148 145 145 145 146 146 145 143 143
132 119 117 89 327 175 197 190 179 164 169 190 215 263 292 323 318 318 317 313 310 312 317 320 320 320 320 319 320 323 335 138 140 139 138 138 140 142 142 142 141 139 138 135
118 123 163 182 196 177 200 200 192 188 203 223 232 261 286 300 306 309 309 305 302 305 314 318 319 320 324 328 338 4 34 82 113 124 129 132 135 135 134 133 133 133 132 130
104 144 193 227 219 197 213 213 205 211 213 224 247 256 274 286 293 296 297 302 305 310 320 326 326 327 333 354 16 48 65 80 100 112 118 120 120 120 121 123 123 122 121 119
103 134 162 281 245 231 240 232 222 225 230 240 257 270 273 280 283 288 298 306 307 310 319 328 334 345 352 17 48 74 80 87 96 103 108 112 114 115 115 115 115 113 111 111
144 142 152 274 305 323 262 231 218 214 217 220 245 256 273 288 292 295 303 307 303 305 319 331 343 355 14 53 82 90 94 95 95 98 101 105 109 109 109 111 110 110 108 107
144 141 159 280 337 249 248 243 200 213 237 231 241 262 276 280 290 293 306 306 313 328 347 8 28 44 57 75 87 92 93 95 97 97 98 101 104 105 105 106 106 106 107 110
149 150 177 220 266 280 289 261 188 201 260 236 237 261 277 297 305 286 17 26 36 59 64 64 71 80 80 87 95 97 95 96 97 98 100 102 106 107 107 107 107 109 112 113
147 141 180 206 248 256 263 283 154 113 274 244 235 268 286 310 298 281 92 76 77 78 77 78 80 86 88 91 99 101 101 101 102 103 104 104 106 109 111 112 112 111 114 117
175 190 211 220 242 266 258 249 119 224 264 264 259 266 269 250 240 200 103 94 96 92 90 89 86 86 93 100 102 102 102 103 107 107 105 105 106 109 112 110 110 114 114 111
182 190 199 193 218 253 257 151 195 236 264 265 262 259 248 227 168 126 119 117 111 103 100 99 96 91 91 101 106 105 105 109 109 108 107 107 108 112 115 115 112 111 115 112
198 197 192 202 222 245 242 231 258 265 269 271 261 257 220 193 178 150 134 131 124 118 116 112 110 104 98 102 112 113 113 114 113 111 111 112 110 109 115 119 119 112 108 110
241 192 205 247 260 263 265 262 266 263 260 273 268 260 213 189 169 151 142 138 135 131 129 126 123 119 113 109 111 117 121 121 118 117 116 115 114 109 101 98 105 111 114 113
241 198 219 249 272 287 275 249 256 268 281 291 295 271 200 168 160 153 146 143 140 137 133 132 129 125 123 120 118 122 124 124 120 118 118 116 112 111 102 93 99 111 118 141
222 205 212 242 249 248 268 256 231 238 257 261 274 297 157 159 153 146 142 138 136 136 133 130 129 129 129 127 124 125 127 129 129 127 122 116 114 112 111 106 88 82 93 91
Height
1465 1470 1471 1472 1475 1477 1480 1483 1484 1480 1475 1474 1474 1472 1466 1463 1463 1461 1459 1458 1457 1456 1458 1461 1463 1466 1469 1471 1473 1475 1477 1480 1483 1485 1487 1490 1493 1495 1498 1501 1503 1506 1508 1511
1467 1468 1467 1469 1473 1475 1479 1482 1482 1479 1475 1474 1474 1471 1463 1458 1456 1454 1452 1451 1451 1451 1452 1455 1457 1460 1462 1464 1467 1469 1470 1473 1475 1478 1480 1483 1486 1489 1493 1496 1499 1501 1503 1506
1462 1463 1465 1468 1472 1475 1478 1481 1481 1480 1478 1476 1476 1471 1461 1452 1449 1447 1445 1444 1444 1445 1446 1449 1451 1454 1456 1458 1460 1462 1464 1466 1468 1471 1474 1477 1481 1483 1486 1489 1492 1495 1498 1500
1461 1461 1463 1467 1470 1473 1477 1475 1476 1479 1484 1487 1485 1485 1464 1454 1448 1443 1440 1438 1438 1440 1442 1444 1446 1448 1450 1452 1454 1456 1457 1459 1461 1464 1466 1468 1471 1474 1477 1481 1485 1489 1492 1495
1460 1460 1462 1466 1468 1470 1475 1475 1477 1481 1486 1491 1488 1490 1467 1455 1449 1441 1438 1436 1436 1437 1439 1440 1442 1444 1445 1447 1448 1449 1451 1452 1454 1456 1458 1461 1464 1467 1471 1475 1479 1482 1486 1489
1459 1460 1462 1464 1466 1469 1473 1478 1481 1487 1493 1498 1488 1492 1473 1457 1446 1442 1439 1436 1436 1437 1438 1439 1439 1440 1441 1442 1443 1444 1445 1446 1448 1449 1451 1454 1457 1460 1464 1468 1472 1476 1480 1483
1462 1462 1462 1464 1469 1471 1474 1485 1495 1495 1497 1494 1482 1485 1469 1449 1444 1443 1441 1438 1438 1437 1437 1437 1437 1437 1437 1437 1438 1438 1438 1439 1441 1442 1444 1446 1450 1453 1457 1461 1465 1469 1473 1476
1463 1467 1464 1464 1467 1472 1475 1482 1495 1497 1496 1488 1477 1477 1459 1444 1440 1440 1439 1438 1437 1437 1436 1436 1435 1434 1433 1433 1432 1432 1432 1432 1433 1435 1436 1439 1442 1446 1451 1455 1459 1463 1467 1471
1460 1464 1463 1463 1465 1469 1476 1481 1483 1491 1493 1494 1481 1470 1454 1441 1440 1438 1438 1437 1436 1436 1435 1433 1432 1430 1429 1428 1427 1426 1425 1425 1426 1427 1429 1432 1435 1439 1444 1449 1453 1457 1461 1465
1454 1463 1464 1464 1466 1469 1472 1476 1486 1495 1497 1493 1481 1473 1458 1445 1442 1440 1439 1437 1436 1434 1432 1430 1428 1426 1424 1422 1420 1419 1418 1417 1418 1419 1421 1424 1428 1433 1438 1442 1446 1451 1455 1460
1452 1462 1467 1467 1469 1471 1474 1477 1481 1491 1495 1496 1489 1467 1447 1443 1442 1441 1439 1437 1435 1432 1430 1427 1425 1422 1419 1416 1413 1411 1409 1409 1410 1411 1414 1417 1422 1427 1432 1437 1441 1446 1450 1455
1452 1461 1468 1468 1466 1467 1471 1474 1480 1491 1492 1493 1494 1469 1441 1442 1440 1439 1437 1435 1432 1430 1427 1424 1421 1417 1414 1410 1407 1405 1402 1401 1402 1405 1408 1412 1417 1421 1426 1432 1437 1442 1446 1451
1451 1461 1471 1474 1474 1470 1470 1471 1474 1479 1483 1490 1488 1464 1440 1439 1437 1436 1434 1431 1428 1425 1422 1419 1416 1413 1410 1406 1403 1400 1398 1397 1398 1401 1404 1408 1413 1418 1423 1428 1433 1438 1443 1447
1451 1459 1468 1470 1467 1465 1467 1467 1469 1473 1481 1482 1474 1458 1442 1439 1437 1434 1431 1428 1425 1422 1419 1416 1412 1409 1406 1403 1400 1397 1396 1395 1396 1399 1402 1406 1411 1416 1421 1426 1431 1435 1440 1445
1452 1459 1460 1460 1459 1460 1461 1462 1464 1466 1468 1471 1461 1454 1441 1437 1435 1432 1428 1424 1421 1419 1416 1413 1410 1407 1404 1401 1398 1397 1396 1396 1397 1399 1402 1406 1410 1415 1420 1425 1429 1434 1439 1445
1454 1458 1459 1459 1456 1457 1458 1455 1456 1457 1457 1456 1452 1445 1435 1433 1431 1428 1424 1422 1419 1416 1414 1411 1409 1406 1403 1400 1398 1397 1397 1398 1399 1402 1404 1407 1411 1416 1420 1424 1429 1434 1440 1446
1456 1459 1461 1462 1457 1455 1456 1445 1446 1448 1446 1446 1445 1438 1432 1431 1428 1424 1422 1419 1417 1415 1413 1410 1408 1405 1402 1400 1400 1399 1400 1401 1402 1405 1407 1410 1413 1418 1422 1426 1431 1436 1442 1448
1456 1459 1461 1461 1460 1461 1444 1434 1435 1438 1436 1436 1434 1431 1429 1427 1424 1421 1420 1418 1415 1413 1411 1409 1407 1405 1403 1402 1402 1402 1403 1404 1406 1408 1411 1414 1417 1421 1425 1430 1435 1440 1446 1451
1452 1456 1460 1461 1460 1454 1440 1432 1432 1435 1433 1429 1429 1427 1426 1424 1421 1419 1418 1416 1415 1412 1411 1409 1408 1407 1406 1405 1405 1405 1406 1408 1409 1412 1415 1418 1422 1425 1430 1435 1439 1444 1449 1453
1452 1454 1459 1458 1458 1456 1438 1430 1429 1433 1432 1427 1426 1425 1423 1422 1423 1419 1417 1415 1414 1412 1411 1410 1409 1408 1408 1408 1409 1409 1410 1412 1414 1417 1420 1423 1427 1431 1435 1439 1444 1448 1452 1455
1452 1453 1454 1454 1454 1447 1433 1429 1430 1436 1431 1425 1423 1422 1421 1421 1420 1418 1416 1414 1413 1412 1411 1411 1411 1410 1411 1411 1412 1413 1414 1416 1419 1422 1425 1428 1432 1436 1440 1444 1448 1451 1455 1457
1447 1449 1449 1450 1451 1446 1428 1428 1430 1428 1423 1422 1420 1419 1418 1417 1416 1415 1414 1414 1413 1413 1412 1413 1412 1413 1413 1414 1415 1416 1418 1421 1423 1426 1429 1433 1437 1441 1444 1448 1451 1454 1456 1458
1442 1442 1442 1442 1438 1428 1426 1425 1424 1423 1421 1419 1417 1416 1415 1414 1413 1413 1413 1413 1413 1413 1414 1414 1415 1415 1416 1418 1419 1420 1422 1425 1427 1431 1434 1438 1441 1445 1448 1451 1453 1455 1457 1458
1435 1434 1436 1435 1429 1425 1423 1422 1421 1420 1418 1416 1415 1413 1412 1411 1411 1412 1412 1413 1413 1414 1415 1416 1417 1417 1419 1421 1423 1424 1426 1429 1432 1435 1438 1442 1445 1448 1451 1453 1455 1456 1457 1457
1432 1431 1431 1430 1425 1422 1419 1419 1418 1417 1415 1413 1412 1410 1410 1409 1410 1410 1411 1412 1414 1414 1416 1417 1418 1420 1421 1424 1426 1429 1431 1434 1436 1439 1442 1445 1448 1450 1452 1454 1455 1456 1456 1456
1428 1428 1429 1426 1422 1421 1418 1417 1416 1414 1413 1411 1410 1408 1408 1408 1408 1409 1411 1412 1414 1415 1417 1418 1420 1422 1424 1427 1429 1432 1435 1438 1441 1443 1446 1448 1450 1452 1453 1454 1455 1455 1455 1454